• In Netherlands
  • List of Countries
  • For 7 days
  • Water Temperature
  • Satellite Maps
  • Weather Map
  • Weather Widgets
  • user-avatar
    Login

    Hourly Weather Sevan

    Today, 25 May, Friday

    Time Temperature Precipitation Wind Pressure Humidity
    00:00 +12°C° 0 mm 1 mps 640 mmHg 60%
    01:00 +12°C° 0 mm 1 mps 639 mmHg 59%
    02:00 +12°C° 0 mm 1 mps 639 mmHg 59%
    03:00 +12°C° 0 mm 1 mps 639 mmHg 60%
    04:00 +12°C° 0 mm 1 mps 639 mmHg 60%
    05:00 +13°C° 0 mm 1 mps 639 mmHg 61%
    06:00 +14°C° 0 mm 1 mps 640 mmHg 61%
    07:00 +16°C° 0.1 mm 1 mps 640 mmHg 58%
    08:00 +18°C° 0.1 mm 1 mps 640 mmHg 55%
    09:00 +19°C° 0 mm 2 mps 640 mmHg 50%
    10:00 +19°C° 0.2 mm 2 mps 640 mmHg 49%
    11:00 +20°C° 0.2 mm 2 mps 641 mmHg 49%
    12:00 +21°C° 0.2 mm 2 mps 641 mmHg 48%
    13:00 +21°C° 0.4 mm 2 mps 640 mmHg 48%
    14:00 +21°C° 0.4 mm 2 mps 640 mmHg 48%
    15:00 +23°C° 0.4 mm 2 mps 640 mmHg 48%
    16:00 +21°C° 0.4 mm 2 mps 640 mmHg 51%
    17:00 +20°C° 0.4 mm 2 mps 640 mmHg 55%
    18:00 +21°C° 0.4 mm 1 mps 639 mmHg 58%
    19:00 +19°C° 0.2 mm 1 mps 639 mmHg 61%
    20:00 +18°C° 0.2 mm 1 mps 639 mmHg 65%
    21:00 +15°C° 0.2 mm 1 mps 639 mmHg 68%
    22:00 +15°C° 0.2 mm 1 mps 639 mmHg 68%
    23:00 +15°C° 0.2 mm 1 mps 639 mmHg 69%

    Tomorrow, 26 May, Saturday

    Time Temperature Precipitation Wind Pressure Humidity
    00:00 +14°C° 0.2 mm 1 mps 639 mmHg 69%
    01:00 +14°C° 0.1 mm 1 mps 639 mmHg 69%
    02:00 +14°C° 0.1 mm 1 mps 639 mmHg 70%
    03:00 +13°C° 0.1 mm 1 mps 639 mmHg 70%
    04:00 +14°C° 0 mm 1 mps 639 mmHg 69%
    05:00 +14°C° 0 mm 1 mps 639 mmHg 69%
    06:00 +15°C° 0 mm 1 mps 640 mmHg 68%
    07:00 +18°C° 0.1 mm 1 mps 640 mmHg 63%
    08:00 +18°C° 0.1 mm 2 mps 641 mmHg 58%
    09:00 +20°C° 0.1 mm 2 mps 641 mmHg 53%
    10:00 +21°C° 0.2 mm 2 mps 641 mmHg 51%
    11:00 +23°C° 0.2 mm 2 mps 641 mmHg 48%
    12:00 +24°C° 0.2 mm 3 mps 642 mmHg 46%
    13:00 +24°C° 0.6 mm 3 mps 642 mmHg 45%
    14:00 +24°C° 0.6 mm 3 mps 641 mmHg 45%
    15:00 +25°C° 0.6 mm 3 mps 641 mmHg 44%
    16:00 +24°C° 0.4 mm 2 mps 641 mmHg 48%
    17:00 +23°C° 0.4 mm 2 mps 641 mmHg 52%
    18:00 +21°C° 0.4 mm 2 mps 641 mmHg 56%
    19:00 +20°C° 0.8 mm 2 mps 641 mmHg 60%
    20:00 +18°C° 0.8 mm 2 mps 641 mmHg 64%
    21:00 +18°C° 0.8 mm 1 mps 641 mmHg 68%
    22:00 +16°C° 1 mm 1 mps 641 mmHg 69%
    23:00 +16°C° 1 mm 1 mps 642 mmHg 71%

    Day after tomorrow, 27 May, Sunday

    Time Temperature Precipitation Wind Pressure Humidity
    00:00 +16°C° 1 mm 1 mps 642 mmHg 72%
    01:00 +15°C° 0.4 mm 1 mps 642 mmHg 72%
    02:00 +15°C° 0.4 mm 1 mps 642 mmHg 72%
    03:00 +14°C° 0.4 mm 1 mps 642 mmHg 73%
    04:00 +15°C° 0.1 mm 1 mps 642 mmHg 71%
    05:00 +16°C° 0.1 mm 1 mps 643 mmHg 70%
    06:00 +16°C° 0.1 mm 1 mps 643 mmHg 69%
    07:00 +19°C° 0 mm 1 mps 644 mmHg 63%
    08:00 +20°C° 0 mm 1 mps 644 mmHg 57%
    09:00 +22°C° 0 mm 1 mps 645 mmHg 51%
    10:00 +23°C° 0 mm 2 mps 645 mmHg 48%
    11:00 +24°C° 0 mm 2 mps 645 mmHg 45%
    12:00 +25°C° 0 mm 2 mps 646 mmHg 43%
    13:00 +25°C° 0.2 mm 2 mps 646 mmHg 43%
    14:00 +25°C° 0.2 mm 2 mps 646 mmHg 43%
    15:00 +25°C° 0.2 mm 1 mps 646 mmHg 42%
    16:00 +24°C° 0.2 mm 2 mps 646 mmHg 48%
    17:00 +24°C° 0.2 mm 2 mps 646 mmHg 53%
    18:00 +23°C° 0.2 mm 2 mps 645 mmHg 58%
    19:00 +20°C° 0.4 mm 2 mps 646 mmHg 65%
    20:00 +18°C° 0.4 mm 3 mps 646 mmHg 71%
    21:00 +17°C° 0.4 mm 3 mps 646 mmHg 77%
    22:00 +16°C° 0.2 mm 3 mps 646 mmHg 79%
    23:00 +16°C° 0.2 mm 3 mps 646 mmHg 81%

    28 May, Monday

    Time Temperature Precipitation Wind Pressure Humidity
    00:00 +14°C° 0.2 mm 3 mps 646 mmHg 83%
    01:00 +15°C° 0 mm 2 mps 646 mmHg 83%
    02:00 +15°C° 0 mm 2 mps 646 mmHg 83%
    03:00 +14°C° 0 mm 2 mps 645 mmHg 84%
    04:00 +15°C° 0 mm 2 mps 645 mmHg 82%
    05:00 +15°C° 0 mm 1 mps 645 mmHg 80%
    06:00 +15°C° 0 mm 1 mps 646 mmHg 78%
    07:00 +18°C° 0 mm 1 mps 646 mmHg 69%
    08:00 +20°C° 0 mm 1 mps 646 mmHg 60%
    09:00 +22°C° 0 mm 1 mps 646 mmHg 51%
    10:00 +23°C° 0.1 mm 1 mps 646 mmHg 48%
    11:00 +24°C° 0.1 mm 1 mps 646 mmHg 46%
    12:00 +25°C° 0.1 mm 2 mps 645 mmHg 44%
    13:00 +26°C° 0.2 mm 2 mps 645 mmHg 43%
    14:00 +26°C° 0.2 mm 2 mps 645 mmHg 42%
    15:00 +26°C° 0.2 mm 2 mps 645 mmHg 41%
    16:00 +26°C° 0.4 mm 1 mps 644 mmHg 46%
    17:00 +25°C° 0.4 mm 1 mps 644 mmHg 50%
    18:00 +24°C° 0.4 mm 1 mps 644 mmHg 55%
    19:00 +22°C° 0.5 mm 1 mps 644 mmHg 59%
    20:00 +20°C° 0.5 mm 1 mps 644 mmHg 63%
    21:00 +18°C° 0.5 mm 1 mps 643 mmHg 68%
    22:00 +18°C° 0.3 mm 1 mps 643 mmHg 70%
    23:00 +16°C° 0.3 mm 1 mps 643 mmHg 72%

    29 May, Tuesday

    Time Temperature Precipitation Wind Pressure Humidity
    00:00 +16°C° 0.3 mm 1 mps 643 mmHg 75%
    01:00 +16°C° 0.2 mm 2 mps 643 mmHg 75%
    02:00 +15°C° 0.2 mm 2 mps 643 mmHg 75%
    03:00 +15°C° 0.2 mm 2 mps 643 mmHg 75%
    04:00 +16°C° 0 mm 2 mps 643 mmHg 75%
    05:00 +16°C° 0 mm 1 mps 643 mmHg 75%
    06:00 +16°C° 0 mm 1 mps 643 mmHg 75%
    07:00 +19°C° 0 mm 1 mps 644 mmHg 68%
    08:00 +19°C° 0 mm 2 mps 644 mmHg 62%
    09:00 +21°C° 0 mm 2 mps 644 mmHg 56%
    10:00 +21°C° 0 mm 2 mps 644 mmHg 54%
    11:00 +23°C° 0 mm 2 mps 644 mmHg 53%
    12:00 +24°C° 0 mm 2 mps 644 mmHg 52%
    13:00 +24°C° 0.3 mm 2 mps 643 mmHg 55%
    14:00 +23°C° 0.3 mm 2 mps 643 mmHg 59%
    15:00 +23°C° 0.3 mm 2 mps 643 mmHg 62%
    16:00 +20°C° 1.3 mm 2 mps 643 mmHg 69%
    17:00 +19°C° 1.3 mm 2 mps 642 mmHg 75%
    18:00 +17°C° 1.3 mm 2 mps 642 mmHg 82%
    19:00 +17°C° 2 mm 2 mps 642 mmHg 83%
    20:00 +16°C° 2 mm 2 mps 643 mmHg 85%
    21:00 +15°C° 2 mm 2 mps 643 mmHg 87%
    22:00 +15°C° 0.5 mm 2 mps 643 mmHg 86%
    23:00 +15°C° 0.5 mm 2 mps 643 mmHg 86%

    30 May, Wednesday

    Time Temperature Precipitation Wind Pressure Humidity
    00:00 +15°C° 0.5 mm 2 mps 643 mmHg 86%
    01:00 +14°C° 0.1 mm 2 mps 643 mmHg 86%
    02:00 +14°C° 0.1 mm 2 mps 643 mmHg 86%
    03:00 +14°C° 0.1 mm 2 mps 642 mmHg 86%
    04:00 +14°C° 0 mm 2 mps 643 mmHg 85%
    05:00 +14°C° 0 mm 2 mps 643 mmHg 83%
    06:00 +15°C° 0 mm 2 mps 643 mmHg 82%
    07:00 +16°C° 0 mm 2 mps 643 mmHg 77%
    08:00 +17°C° 0 mm 2 mps 644 mmHg 72%
    09:00 +18°C° 0 mm 2 mps 644 mmHg 67%
    10:00 +19°C° 0 mm 2 mps 644 mmHg 64%
    11:00 +20°C° 0 mm 2 mps 644 mmHg 60%
    12:00 +21°C° 0 mm 3 mps 644 mmHg 56%
    13:00 +23°C° 0.3 mm 2 mps 644 mmHg 55%
    14:00 +23°C° 0.3 mm 2 mps 644 mmHg 54%
    15:00 +23°C° 0.3 mm 2 mps 643 mmHg 53%
    16:00 +23°C° 0.2 mm 2 mps 643 mmHg 57%
    17:00 +21°C° 0.2 mm 2 mps 643 mmHg 60%
    18:00 +20°C° 0.2 mm 2 mps 643 mmHg 64%
    19:00 +19°C° 0.3 mm 3 mps 643 mmHg 69%
    20:00 +18°C° 0.3 mm 3 mps 643 mmHg 74%
    21:00 +16°C° 0.3 mm 3 mps 643 mmHg 79%
    22:00 +16°C° 0.3 mm 2 mps 643 mmHg 79%
    23:00 +15°C° 0.3 mm 2 mps 642 mmHg 79%
    Show more